{"data":{"norad_id":55933,"intl_designator":"2023-037V","name":"STARLINK-5852","alt_names":[],"object_type":"PAYLOAD","status":"ACTIVE","operator":null,"country":"US","launch_date":"2023-03-17","launch_site_code":"AFWTR","launch_vehicle":null,"mission":null,"orbit_class":"UNKNOWN","rcs_meters":null,"size_class":null,"mass_kg":null,"dimensions":null,"purposes":["comms"],"wikipedia_slug":null,"has_3d_model":false,"image_url":null,"decayed_at":null,"tle_current":{"epoch":"2026-05-25T02:26:40.507872Z","epoch_age_seconds":62259,"freshness":"FRESH","line1":"1 55933U 23037V   26145.10185773 -.00000300  00000+0 -17362-4 0  9997","line2":"2 55933  69.9999  91.8937 0003101 267.3594  92.7210 14.98331767175425","mean_motion":14.98331767,"eccentricity":0.0003101,"inclination_deg":69.9999,"raan_deg":91.8937,"arg_perigee_deg":267.3594,"mean_anomaly_deg":92.721,"bstar":-1.7362e-5,"rev_number":17542,"period_min":96.106885785597,"perigee_km":569.89517352704,"apogee_km":574.20567976905,"semimajor_km":6950.187426648,"source":"CELESTRAK","updated_at":"2026-05-25T13:38:17.914087Z"}}}